Tracking 19795 objects as of 19-Jul-2019
HD Live streaming from Space Station
objects crossing your sky now

FENGYUN 1C DEB

Track FENGYUN 1C DEB now!
10-day predictions


NORAD ID: 32209
Int'l Code: 1999-025CVF
Perigee: 851.8 km
Apogee: 1,376.3 km
Inclination: 99.4 °
Period: 107.4 minutes
Semi major axis: 7485 km
RCS: 0.0093 m2 (small)
Launch date: May 10, 1999
Source: People's Republic of China (PRC)
Launch site: Taiyaun Space Center, China (TSC)

Note: This is SATELLITE DEBRIS
aabbcc
Your satellite tracking list
Your tracking list is empty




NASA's NSSDC Master Catalog

Two Line Element Set (TLE):
1 32209U 99025CVF 19198.18461115 -.00000208  00000-0 -21529-3 0  9990
2 32209  99.4233 271.9207 0350353  74.5996 289.3550 13.40630557586550
Source of the keplerian elements: AFSPC